• In Uzbekistan
  • List of Countries
  • For 7 days
  • Water Temperature
  • Satellite Maps
  • Weather Map
  • Weather Widgets
  • user-avatar
    Login

    Hourly Weather Serowe

    Today, 18 October, Wednesday

    Time Temperature Precipitation Wind Pressure Humidity
    00:00 +25°C° 0 mm 4 mps 666 mmHg 8%
    01:00 +25°C° 0 mm 4 mps 666 mmHg 8%
    02:00 +24°C° 0 mm 3 mps 666 mmHg 8%
    03:00 +22°C° 0 mm 3 mps 666 mmHg 8%
    04:00 +21°C° 0 mm 3 mps 666 mmHg 9%
    05:00 +21°C° 0 mm 3 mps 666 mmHg 9%
    06:00 +22°C° 0 mm 4 mps 666 mmHg 11%
    07:00 +23°C° 0 mm 5 mps 667 mmHg 13%
    08:00 +26°C° 0 mm 5 mps 668 mmHg 12%
    09:00 +28°C° 0 mm 5 mps 668 mmHg 16%
    10:00 +29°C° 0 mm 6 mps 668 mmHg 21%
    11:00 +32°C° 0 mm 6 mps 668 mmHg 26%
    12:00 +33°C° 0 mm 5 mps 668 mmHg 23%
    13:00 +34°C° 0 mm 4 mps 667 mmHg 20%
    14:00 +34°C° 0 mm 4 mps 667 mmHg 24%
    15:00 +34°C° 0 mm 4 mps 667 mmHg 23%
    16:00 +34°C° 0 mm 4 mps 667 mmHg 21%
    17:00 +34°C° 0 mm 3 mps 666 mmHg 20%
    18:00 +32°C° 0 mm 4 mps 666 mmHg 26%
    19:00 +29°C° 0 mm 5 mps 666 mmHg 32%
    20:00 +27°C° 0 mm 6 mps 666 mmHg 37%
    21:00 +26°C° 0 mm 6 mps 666 mmHg 42%
    22:00 +24°C° 0 mm 6 mps 666 mmHg 46%
    23:00 +23°C° 0 mm 6 mps 666 mmHg 51%

    Tomorrow, 19 October, Thursday

    Time Temperature Precipitation Wind Pressure Humidity
    00:00 +22°C° 0 mm 6 mps 666 mmHg 55%
    01:00 +21°C° 0 mm 6 mps 666 mmHg 59%
    02:00 +20°C° 0 mm 5 mps 665 mmHg 63%
    03:00 +20°C° 0 mm 5 mps 665 mmHg 65%
    04:00 +19°C° 0 mm 6 mps 665 mmHg 67%
    05:00 +19°C° 0 mm 6 mps 665 mmHg 70%
    06:00 +20°C° 0 mm 6 mps 665 mmHg 64%
    07:00 +21°C° 0 mm 6 mps 666 mmHg 59%
    08:00 +22°C° 0 mm 6 mps 666 mmHg 53%
    09:00 +27°C° 0 mm 6 mps 667 mmHg 42%
    10:00 +32°C° 0 mm 6 mps 667 mmHg 32%
    11:00 +35°C° 0 mm 6 mps 667 mmHg 21%
    12:00 +37°C° 0 mm 5 mps 667 mmHg 17%
    13:00 +40°C° 0 mm 4 mps 667 mmHg 13%
    14:00 +40°C° 0 mm 3 mps 666 mmHg 9%
    15:00 +40°C° 0 mm 3 mps 666 mmHg 9%
    16:00 +40°C° 0 mm 3 mps 665 mmHg 9%
    17:00 +40°C° 0 mm 2 mps 665 mmHg 9%
    18:00 +38°C° 0 mm 2 mps 665 mmHg 10%
    19:00 +37°C° 0 mm 2 mps 665 mmHg 11%
    20:00 +35°C° 0 mm 2 mps 665 mmHg 13%
    21:00 +35°C° 0 mm 2 mps 666 mmHg 15%
    22:00 +34°C° 0 mm 3 mps 666 mmHg 17%
    23:00 +33°C° 0 mm 3 mps 666 mmHg 19%

    Day after tomorrow, 20 October, Friday

    Time Temperature Precipitation Wind Pressure Humidity
    00:00 +32°C° 0 mm 4 mps 666 mmHg 22%
    01:00 +30°C° 0 mm 4 mps 666 mmHg 24%
    02:00 +29°C° 0 mm 4 mps 665 mmHg 27%
    03:00 +29°C° 0 mm 4 mps 665 mmHg 29%
    04:00 +29°C° 0 mm 4 mps 665 mmHg 30%
    05:00 +28°C° 0 mm 4 mps 665 mmHg 32%
    06:00 +29°C° 0 mm 4 mps 666 mmHg 30%
    07:00 +30°C° 0 mm 5 mps 666 mmHg 29%
    08:00 +32°C° 0 mm 5 mps 667 mmHg 27%
    09:00 +34°C° 0 mm 6 mps 667 mmHg 24%
    10:00 +36°C° 0 mm 6 mps 668 mmHg 21%
    11:00 +39°C° 0 mm 7 mps 668 mmHg 18%
    12:00 +39°C° 0.1 mm 6 mps 667 mmHg 19%
    13:00 +37°C° 0.1 mm 5 mps 667 mmHg 19%
    14:00 +37°C° 0.1 mm 4 mps 666 mmHg 19%
    15:00 +36°C° 0.2 mm 4 mps 666 mmHg 23%
    16:00 +35°C° 0.2 mm 5 mps 666 mmHg 27%
    17:00 +34°C° 0.2 mm 5 mps 666 mmHg 31%
    18:00 +32°C° 0 mm 6 mps 666 mmHg 39%
    19:00 +29°C° 0 mm 6 mps 666 mmHg 48%
    20:00 +27°C° 0 mm 7 mps 666 mmHg 56%
    21:00 +27°C° 0.1 mm 6 mps 667 mmHg 55%
    22:00 +26°C° 0.1 mm 5 mps 667 mmHg 54%
    23:00 +26°C° 0.1 mm 5 mps 668 mmHg 54%

    21 October, Saturday

    Time Temperature Precipitation Wind Pressure Humidity
    00:00 +26°C° 0.1 mm 5 mps 667 mmHg 56%
    01:00 +24°C° 0.1 mm 6 mps 667 mmHg 58%
    02:00 +24°C° 0.1 mm 7 mps 667 mmHg 60%
    03:00 +23°C° 0 mm 6 mps 667 mmHg 63%
    04:00 +23°C° 0 mm 6 mps 666 mmHg 66%
    05:00 +22°C° 0 mm 6 mps 666 mmHg 70%
    06:00 +23°C° 0 mm 6 mps 667 mmHg 68%
    07:00 +24°C° 0 mm 7 mps 668 mmHg 67%
    08:00 +24°C° 0 mm 7 mps 669 mmHg 65%
    09:00 +27°C° 0 mm 7 mps 669 mmHg 58%
    10:00 +29°C° 0 mm 7 mps 669 mmHg 52%
    11:00 +32°C° 0 mm 7 mps 669 mmHg 45%
    12:00 +33°C° 0 mm 7 mps 669 mmHg 41%
    13:00 +34°C° 0 mm 7 mps 669 mmHg 37%
    14:00 +36°C° 0 mm 6 mps 669 mmHg 32%
    15:00 +35°C° 0 mm 7 mps 668 mmHg 35%
    16:00 +34°C° 0 mm 7 mps 668 mmHg 37%
    17:00 +34°C° 0 mm 7 mps 668 mmHg 39%
    18:00 +32°C° 0.5 mm 7 mps 668 mmHg 44%
    19:00 +29°C° 0.5 mm 7 mps 668 mmHg 49%
    20:00 +28°C° 0.5 mm 7 mps 669 mmHg 55%
    21:00 +27°C° 0 mm 6 mps 669 mmHg 56%
    22:00 +27°C° 0 mm 6 mps 669 mmHg 57%
    23:00 +27°C° 0 mm 5 mps 669 mmHg 58%

    22 October, Sunday

    Time Temperature Precipitation Wind Pressure Humidity
    00:00 +26°C° 0.3 mm 6 mps 669 mmHg 61%
    01:00 +26°C° 0.3 mm 7 mps 669 mmHg 64%
    02:00 +24°C° 0.3 mm 7 mps 668 mmHg 67%
    03:00 +24°C° 0.9 mm 8 mps 669 mmHg 69%
    04:00 +23°C° 0.9 mm 9 mps 669 mmHg 71%
    05:00 +23°C° 0.9 mm 9 mps 669 mmHg 74%
    06:00 +23°C° 0.2 mm 9 mps 670 mmHg 73%
    07:00 +23°C° 0.2 mm 9 mps 670 mmHg 72%
    08:00 +23°C° 0.2 mm 8 mps 671 mmHg 71%
    09:00 +26°C° 0.1 mm 8 mps 671 mmHg 63%
    10:00 +27°C° 0.1 mm 8 mps 671 mmHg 55%
    11:00 +29°C° 0.1 mm 7 mps 671 mmHg 47%
    12:00 +30°C° 0 mm 7 mps 670 mmHg 41%
    13:00 +33°C° 0 mm 6 mps 670 mmHg 35%
    14:00 +35°C° 0 mm 5 mps 669 mmHg 29%
    15:00 +35°C° 0 mm 5 mps 669 mmHg 28%
    16:00 +34°C° 0 mm 5 mps 669 mmHg 28%
    17:00 +34°C° 0 mm 4 mps 669 mmHg 27%
    18:00 +33°C° 0 mm 4 mps 669 mmHg 29%
    19:00 +32°C° 0 mm 4 mps 669 mmHg 32%
    20:00 +29°C° 0 mm 4 mps 669 mmHg 35%
    21:00 +29°C° 0 mm 4 mps 669 mmHg 35%
    22:00 +28°C° 0 mm 4 mps 669 mmHg 35%
    23:00 +28°C° 0 mm 4 mps 669 mmHg 35%

    23 October, Monday

    Time Temperature Precipitation Wind Pressure Humidity
    00:00 +27°C° 0 mm 4 mps 669 mmHg 37%
    01:00 +26°C° 0 mm 4 mps 669 mmHg 39%
    02:00 +25°C° 0 mm 3 mps 669 mmHg 41%
    03:00 +25°C° 0 mm 4 mps 669 mmHg 45%
    04:00 +23°C° 0 mm 5 mps 669 mmHg 49%
    05:00 +23°C° 0 mm 5 mps 669 mmHg 53%
    06:00 +24°C° 0 mm 6 mps 670 mmHg 50%
    07:00 +26°C° 0 mm 6 mps 670 mmHg 46%
    08:00 +27°C° 0 mm 7 mps 671 mmHg 43%
    09:00 +29°C° 0 mm 7 mps 670 mmHg 38%
    10:00 +32°C° 0 mm 7 mps 670 mmHg 34%
    11:00 +33°C° 0 mm 6 mps 670 mmHg 29%
    12:00 +35°C° 0 mm 6 mps 670 mmHg 26%
    13:00 +36°C° 0 mm 5 mps 669 mmHg 23%
    14:00 +37°C° 0 mm 5 mps 669 mmHg 20%
    15:00 +37°C° 0 mm 5 mps 668 mmHg 19%
    16:00 +37°C° 0 mm 5 mps 668 mmHg 19%
    17:00 +37°C° 0 mm 5 mps 668 mmHg 19%
    18:00 +35°C° 0 mm 5 mps 668 mmHg 21%
    19:00 +34°C° 0 mm 5 mps 668 mmHg 23%
    20:00 +32°C° 0 mm 5 mps 668 mmHg 25%
    21:00 +32°C° 0 mm 5 mps 668 mmHg 26%
    22:00 +30°C° 0 mm 5 mps 668 mmHg 28%
    23:00 +29°C° 0 mm 5 mps 668 mmHg 29%
    Show more